[[{"header":{"parameterUnit":"m.s-1","parameterCategory":1,"la1":30.2991,"la2":30.254,"lo1":-89.0895,"lo2":-89.0444,"dy":0.0017,"dx":0.0017,"nx":28,"ny":28,"refTime":"2025-09-09T09:00:00:Z","depth":0,"parameterNumber":2,"parameterNumberName":"U-component_of_WINDS"},"data":[0,0,0,0,0,0,0,0,0,0,0,0,0,0,0,0,0,0,0,0,0,0,0,0,0,0,0,0,0,0,0,0,0,0,0,0,0,0,0,0,0,0,0,0,0,0,0,0,0,0,0,0,0,0,0,0,0,0,-3.4017,-3.4017,0,-3.4032,-3.4032,-3.4033,-3.3906,-3.3903,-3.3899,-3.3896,-3.3918,-3.3921,-3.3925,0,0,0,0,0,0,0,0,0,0,0,0,0,-3.3884,-3.3887,-3.4017,-3.4017,-3.4017,-3.4032,-3.4032,-3.4033,-3.3907,-3.3903,-3.3898,-3.3894,-3.3916,-3.3921,-3.3926,0,0,0,0,0,0,0,0,0,0,0,0,0,-3.3925,-3.3888,-3.4017,-3.3956,-3.3951,-3.4032,-3.4032,-3.4033,-3.3908,-3.3903,-3.3897,-3.3892,-3.3915,-3.392,-3.3926,-3.4068,0,0,-3.3944,-3.3946,0,0,0,0,0,0,0,0,-3.3923,-3.393,-3.3965,-3.396,-3.3955,-3.3962,-3.3993,-3.4045,-3.3909,-3.3924,-3.3896,-3.389,-3.3937,-3.3941,-3.3955,-3.4069,-3.407,-3.3944,-3.3948,-3.3951,-3.3952,0,0,0,0,0,0,0,-3.392,-3.3929,-3.4023,-3.3966,-3.3959,-3.393,-3.393,-3.4003,-3.3961,-3.3923,-3.3913,-3.3917,-3.3933,-3.395,-3.3955,-3.4071,-3.3944,-3.3949,-3.3953,-3.3955,-3.4304,-3.431,0,0,0,0,0,0,-3.3925,-3.3927,-3.4022,-3.4023,-3.3925,-3.3937,-3.3937,-3.3965,-3.3959,-3.3953,-3.3921,-3.3911,-3.3943,-3.3948,-3.3955,-3.4123,-3.395,-3.3956,-3.3959,-3.4298,-3.4305,-3.4312,0,0,0,0,0,0,-3.3923,-3.3935,-3.4022,-3.3973,-3.3982,-3.3945,-3.3978,-3.3968,-3.3985,-3.3958,-3.3951,-3.3946,-3.3939,-3.3947,-3.4041,-3.4122,-3.3959,-3.3964,-3.4292,-3.4301,-3.4309,-3.4459,0,0,0,0,0,0,-3.3919,-3.3935,-3.3987,-3.3975,-3.3985,-3.4106,-3.3982,-3.3972,-3.3994,-3.3981,-3.3979,-3.3974,-3.3935,-3.4033,-3.4047,-3.4127,-3.3968,-3.4284,-3.4296,-3.4306,-3.4446,-3.4471,-3.4493,0,0,0,0,0,-3.3915,-3.4029,-3.399,-3.4002,-3.4049,-3.4111,-3.4117,-3.4068,-3.4001,-3.4055,-3.4038,-3.3974,-3.411,-3.4044,-3.4058,-3.4141,-3.4279,-3.4292,-3.4305,-3.4436,-3.4466,-3.4492,0,0,0,0,0,0,-3.4053,-3.4026,-3.3983,-3.4096,-3.4107,-3.4089,-3.4155,-3.4102,-3.4133,-3.412,-3.406,-3.4061,-3.4166,-3.4162,-3.4089,-3.4279,-3.4183,-3.42,-3.4278,-3.4307,-3.4329,-3.4329,-3.3973,0,0,0,0,0,-3.4096,-3.4147,-3.4121,-3.4224,-3.4231,-3.4193,-3.4218,-3.418,-3.4189,-3.4193,-3.4183,-3.4197,-3.4242,-3.4274,-3.4314,-3.4445,-3.4444,-3.4509,-3.4532,-3.4551,-3.4567,-3.4638,-3.4667,-3.4354,-3.4354,-3.4354,0,0,-3.4187,-3.4178,-3.4214,-3.4252,-3.4255,-3.4311,-3.4197,-3.4261,-3.4303,-3.4204,-3.4292,-3.4285,-3.4296,-3.441,-3.4459,-3.441,-3.4653,-3.4568,-3.4583,-3.4589,-3.4654,-3.4684,-3.4711,-3.4363,-3.4362,-3.436,0,0,-3.4381,-3.4379,-3.4464,-3.447,-3.4477,-3.445,-3.4471,-3.4463,-3.4454,-3.4541,-3.4468,-3.4518,-3.4598,-3.4609,-3.4625,-3.4825,-3.4768,-3.484,-3.4962,-3.5032,-3.5056,-3.5078,-3.5152,-3.5178,-3.4855,-3.4855,-3.4856,0,-3.4493,-3.4572,-3.4516,-3.4585,-3.4604,-3.4515,-3.4603,-3.4612,-3.4633,-3.465,-3.4594,-3.4693,-3.4694,-3.481,-3.4859,-3.4874,-3.4898,-3.484,-3.5057,-3.5078,-3.5097,-3.5167,-3.5195,-3.4864,-3.4863,-3.4862,-3.4861,0,-3.4711,-3.4768,-3.4837,-3.4858,-3.4885,-3.4963,-3.4921,-3.4955,-3.4915,-3.4895,-3.4987,-3.4985,-3.5024,-3.5048,-3.501,-3.516,-3.513,-3.5067,-3.4969,-3.5137,-3.5202,-3.5227,-3.4877,-3.4874,-3.4871,-3.4869,0,0,-3.4993,-3.4981,-3.5008,-3.5017,-3.5018,-3.5062,-3.5137,-3.5174,-3.5206,-3.5224,-3.5287,-3.5357,-3.5299,-3.5317,-3.528,-3.5341,-3.5502,-3.527,-3.527,-3.5315,-3.567,-3.5719,-3.575,-3.5464,-3.5468,-3.5472,-3.567,0,-3.5184,-3.531,-3.5262,-3.5393,-3.5446,-3.5362,-3.5428,-3.5437,-3.5421,-3.5466,-3.5448,-3.55,-3.5418,-3.5429,-3.5485,-3.547,-3.5573,-3.5455,-3.5525,-3.5528,-3.5527,-3.5784,-3.5835,-3.6022,-3.5694,-3.5698,-3.5701,0,-3.5423,-3.5449,-3.5585,-3.5578,-3.5599,-3.5658,-3.5689,-3.5732,-3.5742,-3.5726,-3.5747,-3.5697,-3.5772,-3.5674,-3.5779,-3.57,-3.5726,-3.5723,-3.5729,-3.5736,-3.5627,-3.5799,-3.608,-3.6109,-3.574,-3.5737,-3.5734,0,-3.5618,-3.5687,-3.5777,-3.5787,-3.5781,-3.5826,-3.5826,-3.5829,-3.5855,-3.5883,-3.59,-3.5937,-3.5958,-3.5989,-3.595,-3.5882,-3.6063,-3.596,-3.6054,-3.6055,-3.6097,-3.6096,-3.6388,-3.6111,-3.611,-3.611,-3.6109,0,-3.5836,-3.5924,-3.5865,-3.5921,-3.6017,-3.5961,-3.6059,-3.6049,-3.6054,-3.6109,-3.6039,-3.6092,-3.6037,-3.6086,-3.6057,-3.615,-3.6159,-3.6151,-3.6142,-3.6158,-3.616,-3.6176,-3.6163,-3.6117,-3.6115,-3.6114,-3.6113,0,-3.6071,-3.6034,-3.6128,-3.6114,-3.6113,-3.6185,-3.6174,-3.6227,-3.6205,-3.6276,-3.6289,-3.6257,-3.6311,-3.6275,-3.633,-3.631,-3.6433,-3.6405,-3.643,-3.6423,-3.652,-3.6512,-3.6835,-3.6875,-3.657,-3.6573,-3.6575,0,-3.6214,-3.6279,-3.6272,-3.6303,-3.6307,-3.6357,-3.6383,-3.6332,-3.6362,-3.6379,-3.643,-3.6478,-3.6513,-3.6604,-3.6587,-3.663,-3.6604,-3.6714,-3.661,-3.6625,-3.6609,-3.6606,-3.6614,-3.6736,-3.674,-3.6742,-3.6745,0,-3.6472,-3.6451,-3.649,-3.6524,-3.6557,-3.6581,-3.66,-3.663,-3.6578,-3.6616,-3.667,-3.6698,-3.6753,-3.6803,-3.6838,-3.684,-3.6786,-3.6777,-3.6802,-3.682,-3.6832,-3.6829,-3.6489,-3.6771,-3.6768,-3.6766,-3.6765,-3.6764,-3.6667,-3.6721,-3.6725,-3.6772,-3.6781,-3.68,-3.685,-3.6834,-3.6877,-3.6918,-3.6885,-3.695,-3.696,-3.7002,-3.7011,-3.7063,-3.7018,-3.7053,-3.7062,-3.7072,-3.7087,-3.6822,-3.7069,-3.7068,-3.7067,-3.7066,-3.7066,0,-3.6924,-3.6922,-3.6965,-3.6994,-3.7031,-3.6974,-3.6992,-3.7028,-3.7086,-3.7098,-3.7135,-3.7198,-3.7246,-3.7233,-3.7276,-3.732,-3.7297,-3.7334,-3.7331,-3.7333,-3.7123,-3.7098,-3.7352,-3.7352,-3.7352,-3.7352,-3.7352,-3.7352,-3.7062,-3.7152,-3.7132,-3.7226,-3.7224,-3.7286,-3.7302,-3.7321,-3.7331,-3.7404,-3.7443,-3.7433,-3.7437,-3.748,-3.7522,-3.7517,-3.7538,-3.7585,-3.7572,-3.7376,-3.7348,-3.7321,-3.7298,-3.7589,-3.759,-3.7778,-3.7779,-3.7781]},{"header":{"parameterUnit":"m.s-1","parameterCategory":1,"la1":30.2991,"la2":30.254,"lo1":-89.0895,"lo2":-89.0444,"dy":0.0017,"dx":0.0017,"nx":28,"ny":28,"refTime":"2025-09-09T09:00:00:Z","depth":0,"parameterNumber":3,"parameterNumberName":"V-component_of_WINDS"},"data":[0,0,0,0,0,0,0,0,0,0,0,0,0,0,0,0,0,0,0,0,0,0,0,0,0,0,0,0,0,0,0,0,0,0,0,0,0,0,0,0,0,0,0,0,0,0,0,0,0,0,0,0,0,0,0,0,0,0,0.7984,0.7984,0,0.7944,0.7943,0.7943,0.7954,0.7955,0.7956,0.7956,0.7908,0.7906,0.7904,0,0,0,0,0,0,0,0,0,0,0,0,0,0.8067,0.8066,0.7984,0.7984,0.7983,0.7944,0.7943,0.7942,0.7954,0.7955,0.7956,0.7957,0.7909,0.7906,0.7904,0,0,0,0,0,0,0,0,0,0,0,0,0,0.8029,0.8065,0.7985,0.7984,0.7984,0.7944,0.7943,0.7942,0.7954,0.7955,0.7956,0.7957,0.791,0.7907,0.7904,0.7859,0,0,0.7894,0.7893,0,0,0,0,0,0,0,0,0.8031,0.8026,0.7985,0.7984,0.7984,0.7955,0.7954,0.7914,0.7953,0.7965,0.7956,0.7958,0.7922,0.7918,0.7908,0.7857,0.7855,0.7894,0.7892,0.7891,0.789,0,0,0,0,0,0,0,0.8034,0.8028,0.7968,0.7984,0.7984,0.7985,0.7981,0.7947,0.7937,0.7964,0.7965,0.796,0.7922,0.7911,0.7907,0.7854,0.7894,0.7891,0.7889,0.7888,0.7763,0.7762,0,0,0,0,0,0,0.8038,0.803,0.7969,0.7967,0.8011,0.7982,0.7978,0.7963,0.7937,0.7935,0.7959,0.7961,0.7915,0.791,0.7905,0.785,0.7891,0.7888,0.7886,0.7765,0.7763,0.7761,0,0,0,0,0,0,0.8039,0.8032,0.7971,0.7999,0.7991,0.7979,0.7963,0.7962,0.795,0.7934,0.7931,0.7949,0.7916,0.7909,0.787,0.7848,0.7886,0.7883,0.7766,0.7764,0.7762,0.774,0,0,0,0,0,0,0.8042,0.8033,0.8017,0.7998,0.7989,0.7939,0.7962,0.796,0.7945,0.7947,0.7924,0.7921,0.7917,0.7875,0.7867,0.7845,0.7881,0.7768,0.7765,0.7763,0.7742,0.7737,0.7733,0,0,0,0,0,0.8045,0.8011,0.8016,0.8009,0.797,0.7938,0.7932,0.793,0.7944,0.7926,0.7916,0.7922,0.7853,0.7871,0.7862,0.7838,0.7769,0.7766,0.7763,0.7745,0.7738,0.7733,0,0,0,0,0,0,0.8025,0.8009,0.8014,0.7974,0.7957,0.794,0.7918,0.7923,0.7901,0.7903,0.7899,0.7893,0.7853,0.7842,0.7863,0.7793,0.7813,0.7808,0.7802,0.7796,0.7791,0.7793,0.7878,0,0,0,0,0,0.8017,0.7994,0.798,0.7946,0.7937,0.7929,0.7915,0.7915,0.7897,0.7889,0.7876,0.7856,0.783,0.7813,0.7788,0.7742,0.7736,0.7721,0.7716,0.7712,0.7707,0.768,0.7673,0.775,0.775,0.7751,0,0,0.7997,0.7986,0.7971,0.7941,0.7929,0.7903,0.7923,0.7895,0.7876,0.7884,0.7847,0.7836,0.7814,0.7772,0.7752,0.7761,0.7685,0.7708,0.7705,0.7702,0.7676,0.7669,0.7662,0.7748,0.7749,0.7749,0,0,0.7949,0.7939,0.7909,0.7897,0.7878,0.7873,0.7866,0.7848,0.7842,0.7805,0.781,0.7786,0.7742,0.7726,0.7711,0.7659,0.7662,0.7651,0.7624,0.7598,0.7592,0.7587,0.7566,0.7559,0.7646,0.7646,0.7646,0,0.7927,0.7891,0.7893,0.7865,0.785,0.786,0.7828,0.7815,0.7788,0.7777,0.7789,0.7733,0.7719,0.7672,0.7659,0.7648,0.7638,0.7652,0.7593,0.7588,0.7583,0.7563,0.7555,0.7645,0.7645,0.7645,0.7645,0,0.7864,0.7839,0.7817,0.7793,0.7776,0.7747,0.7742,0.7725,0.7726,0.772,0.7681,0.7665,0.7637,0.7626,0.7626,0.7579,0.7585,0.7595,0.7614,0.7574,0.7555,0.7547,0.7643,0.7643,0.7644,0.7644,0,0,0.78,0.7779,0.777,0.7759,0.774,0.7719,0.769,0.7664,0.7649,0.7631,0.7604,0.7567,0.7576,0.756,0.7559,0.7537,0.7494,0.7549,0.7549,0.7538,0.7438,0.7429,0.742,0.7498,0.7496,0.7495,0.7439,0,0.7749,0.7699,0.7699,0.7652,0.7627,0.7637,0.761,0.7595,0.7588,0.7565,0.7557,0.753,0.7546,0.7536,0.7514,0.7504,0.7473,0.7508,0.747,0.7469,0.7473,0.741,0.74,0.7348,0.7432,0.7431,0.743,0,0.7682,0.7663,0.7614,0.7598,0.7588,0.7564,0.7541,0.752,0.7501,0.7498,0.7481,0.7483,0.7451,0.7474,0.7428,0.7451,0.7436,0.7429,0.7426,0.742,0.7445,0.74,0.7332,0.7323,0.7419,0.7419,0.742,0,0.7638,0.76,0.7566,0.7556,0.7537,0.752,0.7511,0.7495,0.7479,0.7458,0.7448,0.7423,0.7408,0.7388,0.7383,0.74,0.7337,0.7359,0.733,0.733,0.7314,0.7315,0.724,0.7309,0.7309,0.7309,0.7309,0,0.7579,0.7547,0.7545,0.7524,0.7488,0.749,0.7454,0.7446,0.7432,0.7407,0.7414,0.739,0.7386,0.7361,0.7357,0.7319,0.7313,0.7307,0.7306,0.7305,0.7305,0.7293,0.7295,0.7307,0.7308,0.7308,0.7308,0,0.7522,0.752,0.7482,0.7468,0.7464,0.7438,0.7426,0.7404,0.7399,0.7368,0.736,0.7352,0.7323,0.7317,0.7282,0.7279,0.7233,0.7236,0.7239,0.7238,0.721,0.7211,0.7122,0.7109,0.7189,0.7188,0.7188,0,0.7483,0.746,0.7444,0.7429,0.742,0.7396,0.738,0.7381,0.7364,0.7342,0.7323,0.7295,0.7273,0.7226,0.7214,0.7188,0.7189,0.716,0.7185,0.7184,0.7185,0.7186,0.7182,0.7153,0.7153,0.7152,0.7151,0,0.7414,0.7414,0.7393,0.7371,0.7354,0.7336,0.7319,0.7306,0.7304,0.7285,0.7257,0.724,0.7205,0.7177,0.715,0.7139,0.7143,0.7144,0.7136,0.7133,0.7135,0.7131,0.7223,0.7145,0.7146,0.7146,0.7147,0.7147,0.7363,0.7342,0.7328,0.7304,0.7292,0.7277,0.7255,0.7249,0.7226,0.7199,0.7201,0.7169,0.7151,0.7116,0.7103,0.7077,0.7086,0.7074,0.7071,0.7067,0.7063,0.7142,0.7073,0.7073,0.7073,0.7073,0.7073,0,0.7292,0.7284,0.7262,0.724,0.722,0.723,0.7213,0.7195,0.7168,0.7152,0.713,0.7097,0.707,0.7058,0.703,0.7012,0.7013,0.7004,0.7004,0.7001,0.7058,0.7067,0.7003,0.7003,0.7003,0.7003,0.7003,0.7003,0.7253,0.7217,0.7216,0.7175,0.7166,0.7137,0.7126,0.7111,0.7098,0.7061,0.7039,0.7033,0.7018,0.699,0.6964,0.6961,0.695,0.6939,0.6937,0.699,0.6997,0.7003,0.7012,0.6937,0.6937,0.6881,0.688,0.688]}]]